マックホルツ-藤川-岩本彗星

C/2018 V1 ( Machholz-Fujikawa-Iwamoto )

English version
Home page
Updated on July 13, 2019

---------------------------------------------------------------------

・ プロフィール

発見日 2018年11月7日
発見光度 10.5等、12.0等、10等
発見者 Donald E. Machholz, Jr. (Colfax, CA, U.S.A.), Shigehisa Fujikawa (Kan'onji, Kagawa, Japan), Masayuki Iwamoto (Awa, Tokushima, Japan)

・ 写真集

・ 軌道要素

Epoch 2018 Nov. 18.0 TT = JDT 2458440.5
T 2018 Dec. 3.50740 TT                                  MPCW
q   0.3869462            (2000.0)            P               Q
z  -0.0013397      Peri.   88.77451     +0.61752117     +0.63893372
 +/-0.0000360      Node   128.72481     +0.24562203     -0.71069182
e   1.0005184      Incl.  143.98533     +0.74721979     -0.29441610
From 696 observations 2018 Nov. 8-Dec. 15, mean residual 0".6.

・ 星図

・ 光度変化

        m1 = 13.5 + 5 logΔ + 15.0 log r(t + 10)

---------------------------------------------------------------------

軌道要素はM.P.E.C. 2019-J142に掲載されたものです。
星図はステラナビゲータ Ver.10 (アストロアーツ) で作成したものです。
光度グラフはComet for Windowsで作成したものです。

---------------------------------------------------------------------

Copyright(C) Seiichi Yoshida (comet@aerith.net). All rights reserved.